Temp
21 22 22 22 22 22 22 22 22 22 22 21 21 21 21 21 22 22 22 22 22 21 21 22 22 22 22 22 22 21 21 21 21 20 20 20 20 20 20 20 20 20 20 20 20 20 20 19 19 19 19 19 19 20 20 20 20 20 20 20 20 20 19 19 19 18 18 17 17 18 18 18 18 18 17 17 17 17 17 17 16 16 16 16 16
21 22 22 22 22 22 22 22 22 22 22 21 21 21 21 21 22 22 22 22 21 21 21 22 22 22 22 22 21 21 21 21 21 20 20 20 20 19 20 20 20 20 20 20 20 19 19 19 18 19 19 19 19 19 19 19 19 20 20 20 20 20 19 19 19 19 18 17 17 17 17 18 17 17 17 17 17 16 16 16 16 16 16 16 16
22 22 22 22 22 22 22 22 22 22 22 22 21 21 21 21 21 21 22 21 21 21 21 21 22 22 21 21 21 21 21 20 21 21 20 20 19 19 20 20 20 20 20 20 20 20 19 19 19 19 19 19 19 19 19 19 19 20 20 20 20 19 19 19 19 19 18 17 17 17 17 17 17 17 17 17 17 16 16 16 16 16 16 16 15
22 22 22 22 22 22 22 22 22 22 22 22 21 21 21 21 21 21 21 21 21 21 21 21 22 22 21 21 21 21 21 20 20 20 20 20 19 19 20 19 20 20 20 20 20 20 19 19 19 19 18 18 18 19 19 19 20 20 20 19 19 19 19 19 19 18 18 17 17 17 17 17 17 17 17 17 17 16 16 16 16 16 16 15 15
22 22 22 22 22 22 22 22 22 22 22 22 22 21 21 21 21 21 21 21 21 21 21 21 21 22 21 21 21 21 21 20 20 20 20 20 20 19 19 19 19 20 20 20 20 20 19 19 19 18 18 18 18 18 19 19 20 20 19 19 19 19 19 19 18 18 17 17 17 17 17 17 17 17 17 16 16 16 16 16 16 16 16 15 15
21 22 22 22 22 22 22 22 22 22 22 22 22 21 21 21 21 21 21 21 21 21 21 21 21 21 21 21 21 20 20 20 20 20 20 20 20 20 20 19 19 19 20 20 20 19 19 19 18 18 18 18 18 19 19 19 19 19 19 19 19 19 19 19 18 18 17 17 17 17 17 17 17 17 17 16 16 16 16 16 16 16 15 15 15
21 22 22 22 22 22 22 22 22 22 22 21 21 21 21 21 21 21 21 21 21 21 21 21 21 21 21 21 21 20 20 20 20 20 19 20 20 20 20 19 19 19 19 20 20 19 19 19 18 18 18 18 19 19 19 19 19 19 19 19 19 19 19 19 19 19 18 17 17 18 17 17 16 17 17 17 16 16 17 16 16 15 15 15 15
21 21 22 22 22 22 22 22 22 22 21 21 21 21 21 21 21 21 21 21 21 21 21 21 21 21 21 21 21 20 20 20 20 20 19 19 19 20 19 19 19 19 19 19 20 19 19 18 18 18 18 19 19 19 19 19 19 19 20 20 19 19 19 19 19 19 18 17 17 17 17 17 17 17 17 17 16 16 17 16 16 15 15 15 15
21 21 22 22 22 21 22 22 22 21 21 21 21 21 20 20 20 21 21 21 21 21 21 21 21 21 21 21 20 20 20 20 20 20 20 19 19 19 19 19 19 19 19 19 20 19 19 18 18 18 18 19 19 19 20 19 19 20 20 19 19 19 19 19 19 19 18 17 17 18 17 17 17 17 17 17 16 16 16 16 15 15 15 15 15
21 21 21 22 22 22 22 22 21 21 21 21 21 20 20 20 20 20 20 20 20 21 21 21 21 20 20 20 20 20 20 20 20 20 20 19 19 19 19 19 19 19 19 19 19 19 19 18 18 18 18 19 19 19 19 20 20 20 20 19 19 18 18 19 19 19 18 18 18 18 17 17 17 16 17 16 16 16 16 16 15 15 15 15 15
20 21 21 22 22 21 21 21 21 20 20 20 20 20 20 20 20 20 20 20 20 20 20 20 20 20 20 20 20 20 20 20 19 20 20 19 19 19 19 19 19 19 19 19 19 19 19 18 18 18 18 19 19 19 19 20 20 20 20 19 19 19 19 19 19 19 18 18 18 18 18 17 17 16 16 16 16 16 16 16 15 15 15 15 15
20 21 21 22 21 21 21 21 20 20 20 20 20 20 19 19 19 19 20 19 20 20 20 20 20 20 20 20 20 20 20 19 19 19 19 19 19 19 19 19 19 19 19 19 19 19 19 18 18 18 18 18 18 19 19 20 20 20 20 19 19 19 20 20 19 19 19 19 19 18 18 18 17 16 16 16 16 16 16 15 15 15 15 15 15
20 20 21 22 21 21 21 20 20 20 20 20 20 20 20 19 19 19 19 19 19 19 20 20 20 20 20 20 20 20 19 19 19 19 19 19 19 19 19 19 18 18 18 18 18 18 18 18 18 18 18 18 18 19 19 20 20 20 20 20 19 20 20 20 19 18 19 20 19 19 19 18 17 17 16 16 16 16 16 15 15 15 15 15 15
20 20 21 21 21 21 20 20 20 20 20 20 20 20 20 20 19 19 19 19 19 20 20 20 20 20 20 20 20 20 19 19 19 19 19 19 19 19 19 19 18 18 18 18 18 18 18 18 18 18 18 18 18 19 19 19 20 20 20 20 20 20 20 20 19 18 19 20 19 19 19 18 18 17 16 16 16 15 15 15 15 15 15 14 14
20 20 21 21 21 21 20 20 20 20 20 20 20 20 20 20 20 20 20 20 20 20 20 20 20 20 20 20 20 20 19 19 19 19 19 19 19 19 19 19 18 18 18 18 18 18 18 18 18 18 18 18 18 18 19 19 19 20 20 20 20 20 20 20 19 18 19 19 19 19 19 18 18 17 16 16 16 15 15 15 15 15 14 14 14
20 20 20 21 21 20 20 20 20 20 20 20 20 20 20 20 20 20 20 20 20 20 20 20 20 20 20 20 20 19 19 19 19 19 19 19 19 19 19 18 18 18 18 18 18 18 18 18 18 18 18 18 18 18 19 19 20 20 20 20 20 20 20 20 20 19 19 19 19 19 18 18 18 17 17 16 15 15 15 15 15 14 14 14 14
20 20 20 20 20 20 20 20 20 20 20 20 20 20 20 20 20 20 19 19 20 20 20 19 20 20 19 19 19 19 19 19 19 19 19 19 19 19 18 18 18 18 18 18 18 18 18 18 18 17 18 18 18 18 19 19 20 20 20 20 20 20 20 20 19 19 19 19 18 18 18 18 18 17 16 16 15 15 15 15 15 14 14 14 14
21 20 20 20 20 20 20 20 20 20 20 20 20 20 20 20 19 20 19 19 19 19 19 19 19 19 19 19 19 20 19 19 19 19 19 19 19 19 18 18 18 18 18 18 18 18 18 18 17 17 18 18 18 18 19 19 20 20 20 20 20 21 20 19 19 19 19 19 19 19 18 18 17 17 16 16 15 15 15 15 14 14 14 14 14
21 21 21 20 20 20 20 20 20 20 20 20 20 20 20 20 19 19 19 19 19 19 19 19 19 19 19 19 19 19 19 19 19 19 19 19 19 19 18 18 18 18 18 18 18 18 18 18 17 17 18 17 18 18 18 19 20 20 20 20 20 21 21 19 19 20 20 19 19 19 18 18 17 17 16 15 15 15 15 14 14 14 14 14 14
21 21 21 21 21 20 20 20 20 20 20 20 20 20 20 20 20 19 19 19 19 19 19 19 19 19 19 19 19 19 19 19 19 19 19 19 19 19 18 18 18 18 18 18 18 18 18 18 17 17 18 17 17 18 18 18 19 20 20 20 20 21 20 20 19 19 20 19 19 18 18 18 17 17 16 15 15 15 15 14 14 14 14 14 14
22 22 21 21 21 21 20 20 20 20 20 20 20 20 20 20 20 19 19 19 19 19 19 19 19 19 19 19 19 19 19 19 19 19 19 19 19 19 18 18 18 18 18 18 18 18 18 17 17 17 17 17 17 18 18 18 19 20 20 20 20 21 20 19 19 19 19 19 19 18 18 18 17 17 16 15 15 15 15 14 14 14 14 14 14
22 22 22 21 21 21 21 20 20 20 20 20 20 20 20 20 19 19 19 19 19 19 19 19 19 19 19 19 19 19 19 19 19 19 19 19 19 19 18 18 18 18 18 18 18 18 17 17 17 17 17 17 18 18 18 18 19 20 20 20 20 21 20 19 19 20 19 19 19 18 18 18 17 17 16 15 15 15 15 14 14 14 14 14 14
23 23 22 22 21 21 21 20 20 20 19 19 19 19 19 19 19 19 19 19 19 19 19 19 19 19 19 19 19 19 19 18 18 18 18 18 19 19 18 18 18 18 18 18 18 17 17 17 17 17 17 17 17 18 18 18 19 20 20 20 20 21 20 18 19 20 19 19 19 18 18 18 17 17 16 15 15 15 15 14 14 14 14 14 14
22 23 22 22 22 21 21 21 20 20 19 19 19 19 19 19 18 18 19 19 19 19 19 19 18 19 19 19 19 18 18 18 18 19 18 18 18 18 18 18 18 18 18 18 17 17 17 17 17 17 17 17 17 17 17 18 19 19 20 20 20 21 20 18 19 19 19 19 19 19 18 18 17 17 16 15 15 15 15 14 14 14 14 14 14
22 23 22 22 22 21 21 21 21 20 20 19 19 18 18 18 18 18 18 18 18 18 18 18 18 18 18 18 18 18 18 18 18 18 18 18 18 17 18 18 18 18 18 18 18 17 17 17 17 17 17 17 17 17 17 18 19 20 20 19 19 20 20 18 19 19 19 19 19 19 19 18 17 16 16 15 15 15 15 14 14 14 14 14 14
22 22 22 22 22 22 21 21 20 20 20 19 19 19 19 18 18 18 18 18 18 18 18 18 19 18 18 18 18 18 18 18 18 18 18 18 18 17 17 18 18 18 18 18 18 18 18 18 18 18 18 18 17 17 17 17 18 20 20 19 19 20 20 19 19 19 19 19 19 19 19 18 18 16 16 16 15 15 15 14 14 14 15 15 14
22 22 22 22 22 22 21 21 20 20 20 19 19 18 18 18 18 18 18 18 18 18 18 18 19 18 18 18 18 18 19 18 18 18 18 18 17 17 17 17 18 19 19 18 18 19 19 18 18 18 18 18 18 18 17 17 18 20 20 20 20 20 20 19 20 20 19 19 19 19 19 19 18 17 16 16 15 15 15 14 14 14 15 15 15
22 22 21 21 21 21 21 21 20 20 19 19 19 19 18 18 18 18 18 18 18 18 18 19 18 18 18 18 18 18 18 18 18 18 18 18 17 17 17 17 18 18 19 18 18 19 19 19 18 18 18 18 18 18 18 18 19 20 20 20 20 20 20 20 20 19 19 19 19 19 19 19 18 17 17 16 16 15 15 15 14 14 14 15 15
21 21 21 21 21 20 21 21 20 20 19 19 19 19 19 19 18 18 18 18 17 17 18 19 18 17 18 18 18 18 18 18 18 18 18 17 17 17 17 17 17 17 18 18 18 19 19 19 19 19 19 19 19 19 19 19 19 20 20 20 20 20 20 20 20 19 19 19 19 19 18 19 18 18 17 16 16 16 15 15 14 14 14 15 15
21 21 21 21 20 20 20 20 20 20 19 19 19 19 19 19 19 18 18 18 17 17 17 18 18 17 17 17 17 17 18 18 18 17 17 17 17 17 17 17 17 17 17 17 17 18 18 19 19 19 19 19 19 20 20 20 20 20 20 20 20 20 20 20 20 19 20 20 19 19 18 19 18 18 18 17 16 16 15 15 15 14 14 14 14
21 20 20 20 20 20 20 20 20 20 19 19 19 19 19 18 18 18 18 18 18 17 17 18 18 17 17 17 17 17 17 18 18 17 17 17 17 17 17 18 17 17 17 17 17 18 18 18 18 18 19 19 19 20 21 21 21 21 21 20 20 20 20 20 20 19 19 19 19 19 19 18 18 18 18 18 17 16 16 15 15 15 14 14 14
20 20 20 20 19 19 19 19 19 19 19 19 19 19 19 18 18 18 18 18 18 18 18 18 18 17 17 17 17 17 17 17 18 17 17 17 16 16 17 17 17 17 17 17 17 18 18 18 18 18 19 19 19 21 21 21 21 21 21 21 21 20 20 20 20 20 19 19 19 19 19 18 18 18 18 18 17 17 16 16 15 15 15 14 14
20 20 19 19 19 19 19 19 19 19 19 19 19 19 19 18 18 18 18 18 18 18 18 18 18 17 17 17 17 17 17 17 18 17 17 17 17 16 16 17 17 17 17 17 17 18 18 18 18 19 19 19 20 21 21 21 21 21 21 21 21 20 21 20 20 20 20 19 19 19 19 19 18 18 18 18 18 17 17 16 16 15 15 15 14
20 19 19 19 18 18 18 18 18 19 19 19 19 19 19 18 18 19 18 18 18 18 18 18 18 18 17 17 17 18 18 18 18 17 17 17 17 16 16 17 17 17 17 17 17 18 18 18 18 18 19 20 20 21 21 21 21 21 21 21 21 21 21 20 20 20 20 19 19 19 19 19 18 18 18 18 18 17 17 17 16 15 15 15 15
19 19 19 18 18 18 18 18 18 18 19 19 19 18 18 18 19 19 18 18 18 18 18 18 18 18 17 17 17 17 18 18 17 17 17 17 16 17 17 17 17 17 17 17 17 18 18 18 18 18 19 20 20 21 21 21 21 21 21 21 21 21 21 20 20 20 20 20 19 19 19 19 19 18 18 18 18 17 17 17 17 16 15 15 15
19 19 18 18 18 18 18 18 18 18 18 18 18 18 19 19 18 18 18 18 18 18 18 18 18 18 17 17 17 17 17 17 17 17 17 17 16 17 17 17 17 17 17 17 17 18 18 18 19 18 19 20 20 20 21 21 21 21 21 21 21 21 21 21 20 21 20 20 20 19 19 19 19 19 19 18 18 18 17 17 17 16 16 15 15
19 18 18 18 18 18 18 18 18 18 18 18 18 18 18 18 18 18 18 18 18 18 18 18 18 17 17 17 17 17 17 17 17 17 16 16 16 16 17 17 17 17 17 17 17 17 18 18 19 19 19 20 20 21 21 21 21 21 21 21 21 21 21 21 20 20 20 20 20 19 19 19 19 19 19 18 18 18 18 17 17 17 16 16 15
19 18 18 18 18 18 18 18 18 18 18 18 18 18 18 18 18 18 18 18 18 18 18 18 18 17 17 17 17 16 16 16 16 16 16 16 16 16 17 16 16 16 16 17 17 17 18 18 18 18 19 19 20 20 20 20 21 21 21 21 21 21 21 21 20 20 20 20 20 20 20 20 19 19 19 19 19 19 18 18 17 17 17 16 16
19 18 18 18 18 18 18 18 18 18 18 18 18 18 18 19 19 18 18 18 18 18 18 18 17 17 17 17 16 16 16 16 16 16 16 16 16 16 17 16 16 16 16 17 17 17 17 17 18 18 18 18 19 19 19 20 20 20 20 20 21 21 21 21 21 20 20 20 21 20 20 20 20 20 20 19 19 19 19 18 18 17 17 17 16
19 18 18 18 18 18 18 18 18 18 18 18 18 18 19 19 19 18 18 18 18 18 18 17 17 17 17 16 16 16 16 16 16 16 16 16 16 16 16 16 16 16 16 17 17 17 17 17 17 17 18 18 18 18 19 20 20 20 20 20 21 21 21 21 21 21 20 20 21 21 21 20 20 20 20 20 19 19 19 19 18 18 17 17 17
19 19 18 18 18 18 18 18 18 19 18 18 18 18 19 19 19 18 18 18 17 17 17 17 17 17 16 16 16 15 15 16 15 15 15 15 16 16 16 16 16 16 16 16 16 16 16 16 16 17 18 18 18 18 19 19 19 19 19 20 20 20 21 21 21 21 21 20 20 21 21 21 20 20 20 20 20 19 19 19 19 18 18 17 17
19 19 18 18 18 18 18 18 18 19 18 18 18 18 19 19 19 18 18 18 17 17 17 16 16 16 16 16 16 15 15 15 15 15 16 16 16 16 16 16 16 16 16 16 16 16 16 16 16 16 17 17 18 18 19 19 18 18 18 18 19 20 20 21 21 21 21 21 21 20 20 20 21 21 20 20 20 20 19 19 19 19 18 18 17
19 19 19 18 18 18 18 18 18 19 18 18 19 19 19 19 19 18 18 18 17 17 17 16 16 16 16 16 16 16 15 15 15 15 15 16 16 16 16 16 16 16 16 16 16 16 16 16 16 16 16 16 16 18 18 18 18 18 17 17 18 19 19 20 20 20 21 21 21 21 20 20 20 21 20 20 20 20 20 19 19 19 18 18 18
19 19 19 19 18 18 18 18 18 18 18 19 19 19 19 18 18 18 18 18 17 16 16 16 16 16 16 16 16 16 15 15 15 15 15 15 15 15 15 15 16 15 15 15 16 16 16 16 16 16 16 15 16 16 17 17 17 18 17 17 17 18 19 19 19 20 21 20 20 21 21 20 20 21 21 20 20 20 20 20 19 19 19 18 18
18 19 19 19 18 18 18 18 18 18 18 18 19 19 18 18 18 18 17 17 17 16 16 16 16 16 16 16 15 15 15 14 15 15 15 15 15 15 15 15 15 15 15 15 15 15 16 16 16 16 16 16 16 16 16 16 17 17 18 17 17 18 18 19 18 19 20 20 20 20 20 20 20 20 21 20 20 20 20 20 19 19 19 19 18
19 19 19 19 19 18 18 18 18 18 18 18 18 18 18 18 18 17 17 17 17 17 17 16 16 16 16 15 15 15 15 14 14 15 15 15 15 15 15 15 15 15 15 15 15 15 15 16 16 16 16 16 16 15 15 16 16 17 17 18 18 18 18 18 18 19 19 20 20 20 20 20 20 20 20 20 20 20 20 20 19 19 19 19 19
19 19 19 19 19 19 18 18 18 18 18 18 17 18 18 18 17 17 17 17 17 17 17 16 16 16 16 15 15 15 14 14 14 15 15 15 15 15 14 15 15 15 15 15 15 15 15 16 16 16 16 16 16 15 15 15 15 16 16 17 17 17 18 18 18 18 18 19 20 20 20 20 20 20 20 20 20 20 20 20 20 20 19 19 19
19 19 19 19 19 19 19 18 18 18 18 18 17 18 17 17 17 17 17 17 17 17 17 16 16 16 15 15 15 14 14 14 14 14 15 14 14 14 14 14 14 15 15 15 15 15 15 15 15 16 16 16 16 15 15 15 15 15 16 16 16 16 16 17 17 17 17 17 18 19 20 20 20 20 20 21 21 20 21 20 20 20 20 19 19
19 19 19 19 19 19 19 18 18 18 18 18 18 17 17 17 17 17 17 17 17 17 17 16 15 15 15 15 14 14 15 14 14 14 14 14 14 14 14 14 14 14 14 14 15 15 15 15 15 15 15 15 15 15 15 15 15 15 15 15 15 15 15 16 16 16 17 17 17 18 19 19 20 20 20 21 21 21 21 21 21 20 20 20 20
19 19 19 19 19 19 19 18 18 18 18 17 18 17 17 17 17 17 17 17 17 17 17 16 16 15 15 15 15 15 14 14 14 14 14 14 14 14 14 14 14 14 15 15 14 15 15 15 15 15 15 15 15 15 15 15 15 15 15 15 15 15 15 15 15 16 16 16 17 17 18 18 19 20 20 21 21 21 21 21 21 20 20 20 20
19 19 19 19 19 19 19 18 18 18 17 17 17 17 17 17 17 17 17 17 17 17 16 16 16 15 15 15 15 15 14 14 14 14 14 14 14 14 14 14 14 14 14 15 15 15 14 14 14 15 15 15 15 15 15 15 16 15 15 15 15 15 15 15 15 16 16 16 16 17 18 18 19 19 20 20 21 21 21 21 21 21 20 20 20
Height
800 799 800 800 802 801 803 802 803 803 803 803 802 803 803 804 804 805 806 807 807 808 809 810 811 811 812 812 813 814 815 816 817 818 818 820 820 821 822 822 823 823 823 824 825 825 826 826 826 826 827 827 828 828 828 828 828 829 830 831 831 832 833 834 834 836 839 841 842 842 842 842 842 842 843 843 843 843 843 843 843 843 843 843 843
797 798 799 799 801 800 802 802 803 802 802 803 803 803 803 804 804 806 806 807 808 808 809 810 811 812 812 813 814 815 816 817 818 818 819 820 821 822 822 823 823 824 824 825 825 826 826 826 827 827 828 828 829 829 829 830 829 830 831 831 832 833 834 835 835 837 840 841 842 843 843 843 843 843 843 844 844 844 844 844 844 844 844 844 843
795 797 797 798 800 800 802 801 802 801 802 802 803 803 803 805 805 806 806 808 808 809 810 811 812 812 813 814 815 816 817 818 819 819 820 821 822 823 823 824 824 825 825 826 826 827 827 827 828 828 829 830 830 831 831 831 831 831 832 833 833 834 835 836 837 838 840 841 843 844 844 845 845 845 844 844 845 845 845 845 845 845 845 845 844
795 796 797 798 799 800 801 801 801 800 801 801 802 802 803 804 805 806 806 808 808 809 810 811 812 813 814 815 816 817 818 819 820 820 821 822 822 823 824 825 825 826 826 827 828 828 829 829 830 830 831 831 832 832 832 833 832 833 833 834 834 835 836 837 838 839 841 842 843 844 845 845 846 846 845 846 846 846 846 846 846 846 846 845 845
794 795 796 797 798 799 800 800 800 800 801 801 801 802 803 803 804 805 806 808 808 809 810 811 812 813 814 815 817 818 819 820 821 821 822 822 823 824 825 826 827 827 827 828 829 830 830 830 831 831 832 832 833 834 834 834 834 834 834 835 835 836 837 838 839 840 842 842 843 844 846 846 846 847 847 847 847 847 847 847 847 847 847 846 846
793 794 796 797 798 798 799 800 800 800 801 801 801 802 802 803 804 805 806 807 808 809 810 811 812 813 814 816 818 818 819 820 821 822 823 823 824 825 826 827 828 828 829 829 830 831 831 832 832 832 833 834 835 835 835 835 835 835 836 836 836 837 838 839 840 841 843 843 844 845 846 847 847 848 848 848 848 848 848 848 848 848 847 847 847
793 794 796 796 798 798 799 800 800 801 801 801 802 802 802 803 804 804 806 807 808 809 810 811 812 814 815 816 818 819 820 821 822 823 824 824 825 826 827 828 828 829 830 830 831 832 832 833 833 833 834 835 836 837 836 836 836 837 837 837 837 838 839 841 842 843 844 845 846 846 847 847 848 849 849 849 849 849 849 849 849 848 848 848 848
793 795 796 797 798 798 799 800 801 801 801 802 802 803 803 803 804 805 806 807 808 809 810 812 813 814 815 817 818 820 821 822 823 823 825 825 826 826 827 828 829 830 831 831 831 832 833 834 834 835 835 836 837 838 838 837 837 838 838 838 839 840 841 842 843 845 846 847 847 847 847 848 849 849 850 850 850 850 850 850 849 849 849 849 848
794 794 796 797 797 798 800 800 801 801 802 803 803 803 803 804 804 805 806 807 808 809 811 812 813 814 815 817 818 819 821 823 823 824 825 826 827 827 828 829 830 831 831 832 832 833 834 835 835 835 836 837 838 839 839 838 838 839 839 840 840 841 842 843 844 845 847 848 848 847 848 849 850 850 851 851 851 851 850 850 850 850 850 850 849
794 794 796 796 798 799 800 800 801 802 803 803 804 804 804 805 805 806 807 808 809 810 811 812 813 815 816 817 819 820 821 823 824 825 825 827 828 828 829 830 831 831 832 833 833 834 835 836 836 836 838 838 839 839 840 839 839 840 840 841 841 842 843 844 844 845 847 848 848 848 849 850 851 851 852 851 851 851 851 851 851 851 851 851 850
794 795 796 797 799 800 800 801 801 802 803 804 804 805 805 806 806 807 808 809 810 811 812 813 814 816 817 818 819 820 822 824 825 825 826 827 829 830 830 831 832 832 833 834 834 835 836 837 837 837 839 839 840 840 840 840 840 840 841 842 842 843 843 844 845 845 846 847 848 848 849 850 851 852 852 852 852 851 851 851 851 852 852 852 851
794 795 796 798 799 801 801 801 801 802 803 804 805 805 806 806 807 808 809 810 811 812 813 814 816 817 818 819 820 821 823 824 825 826 827 828 829 831 831 832 832 833 834 834 835 836 837 837 838 838 840 840 841 841 841 841 841 841 842 842 842 843 843 844 845 846 846 846 847 849 850 850 851 852 853 853 852 852 852 852 852 852 852 852 852
794 795 797 799 799 801 801 802 802 802 804 805 805 806 806 807 808 809 810 811 812 813 815 816 817 818 819 820 820 821 823 824 825 827 828 828 830 831 832 833 833 834 835 835 836 837 837 838 839 839 840 841 842 842 841 841 842 842 842 843 844 844 844 845 846 847 846 846 847 848 850 850 851 852 853 853 853 852 852 852 853 853 853 852 852
794 795 797 799 800 801 801 803 802 803 804 805 806 806 807 807 808 809 810 812 813 814 816 817 818 819 820 821 821 822 824 824 826 827 829 829 830 832 832 833 834 835 835 836 837 837 838 839 839 840 841 842 842 842 842 842 842 842 843 844 845 845 845 845 847 847 846 846 847 848 849 850 851 852 853 853 853 853 853 853 853 853 853 853 852
794 795 797 799 800 801 802 803 803 804 805 806 807 806 807 808 809 810 811 812 813 815 816 817 819 820 821 822 822 823 824 825 826 828 829 830 831 832 833 833 834 836 836 837 837 838 839 839 840 841 842 843 843 843 843 843 843 843 843 844 845 846 846 846 846 847 847 847 847 848 848 850 851 851 852 853 853 853 853 853 853 853 853 853 853
795 796 798 799 801 802 803 804 804 805 806 807 807 807 808 808 810 811 812 813 813 815 816 817 819 821 822 822 823 824 825 825 827 828 830 830 831 833 834 834 835 836 837 838 838 839 839 840 841 841 843 844 844 844 844 844 844 844 844 845 846 846 846 846 845 846 847 847 847 848 848 850 851 851 852 853 853 853 854 854 854 853 853 853 853
796 797 798 800 801 802 803 804 805 805 806 807 808 808 809 809 810 811 812 813 814 815 816 818 819 821 822 823 824 824 825 826 827 829 830 831 832 833 834 835 835 837 838 838 839 839 840 841 841 842 843 844 844 845 844 844 844 844 844 845 846 846 847 847 846 846 847 847 848 849 849 850 851 851 852 853 853 853 854 854 854 854 853 853 853
797 798 799 801 801 802 803 804 805 806 807 807 808 809 809 810 811 811 813 813 814 816 817 819 820 821 823 824 824 825 826 827 828 829 830 831 832 833 834 835 836 837 838 839 839 840 840 841 842 843 844 845 845 845 845 845 845 845 845 845 846 847 847 848 848 848 847 848 848 849 850 851 851 852 853 853 853 853 853 854 854 854 854 854 853
798 799 800 801 801 802 803 804 805 806 807 808 809 809 810 811 811 812 813 814 815 816 818 819 821 822 823 824 825 825 826 827 828 829 830 831 832 834 835 835 836 837 839 839 839 840 841 842 842 843 844 845 846 846 846 846 845 845 846 846 846 847 848 849 849 849 848 848 849 850 850 851 851 852 853 853 853 853 853 854 854 854 854 854 854
799 800 800 801 801 803 803 805 806 806 807 808 809 810 811 811 812 813 814 815 816 817 819 820 821 823 824 825 825 826 827 827 829 830 831 832 832 834 835 836 836 837 839 839 840 840 841 842 843 844 845 845 846 846 846 846 846 846 846 846 847 847 848 849 849 850 849 849 850 850 851 851 852 852 853 853 853 854 853 854 854 855 854 854 854
801 801 801 801 801 803 803 805 805 806 807 808 809 810 811 812 813 814 815 816 817 818 819 820 822 823 824 825 826 826 827 828 829 830 831 832 832 834 835 836 837 837 838 839 839 840 841 842 843 844 845 846 847 847 847 847 846 846 846 847 847 848 849 849 850 850 850 850 850 851 851 851 852 852 853 854 854 854 854 854 854 854 854 854 854
801 802 802 803 802 803 803 805 805 806 807 808 809 810 811 812 813 814 815 817 818 819 820 821 822 823 824 824 825 826 826 827 828 830 831 831 833 834 836 837 837 838 838 839 839 840 841 842 843 844 845 846 846 847 847 847 847 846 846 847 848 848 849 850 850 851 850 851 851 851 852 852 852 852 853 854 854 855 854 854 854 854 854 854 854
801 802 803 803 804 804 804 805 805 806 807 808 809 810 811 812 814 815 816 818 819 820 820 821 822 823 823 824 825 825 826 827 828 829 831 832 833 835 836 837 838 838 839 839 839 840 840 842 843 844 845 846 846 847 847 846 847 847 847 848 848 848 849 850 850 851 851 851 852 852 853 852 852 853 853 854 855 855 855 854 854 854 854 854 854
801 801 802 803 804 804 804 805 805 806 807 807 809 810 811 812 814 815 816 817 818 820 820 821 821 822 822 823 824 824 825 826 827 829 830 832 833 835 836 837 838 839 839 839 840 840 840 841 842 843 844 845 846 847 847 847 847 847 847 848 849 849 849 851 851 851 851 851 852 853 853 853 853 853 853 854 855 855 855 855 855 854 854 855 855
801 801 802 803 804 805 805 805 806 806 807 807 808 809 810 812 814 815 816 817 818 819 819 819 820 821 822 823 823 824 825 826 827 828 830 832 833 834 836 837 838 839 840 840 840 840 840 841 842 843 844 845 846 847 847 847 847 847 848 849 849 849 850 851 851 851 852 852 852 853 853 853 854 854 854 854 855 855 855 855 855 855 854 855 855
801 802 803 804 804 805 805 805 806 806 807 808 808 809 810 811 813 814 815 816 817 818 818 818 819 820 821 822 823 823 825 826 827 828 830 831 832 834 835 838 838 839 840 840 840 840 840 841 841 842 843 844 846 847 847 847 848 848 849 849 850 849 850 851 851 851 852 852 852 852 853 853 853 854 854 854 855 855 856 855 855 855 855 855 855
801 803 803 804 804 804 805 806 806 806 807 808 808 809 810 811 812 814 815 816 817 817 818 818 819 820 821 822 823 823 824 825 827 828 830 831 832 833 835 837 838 839 839 840 840 840 840 840 841 841 842 844 845 846 847 847 848 849 849 849 850 850 850 851 851 851 852 852 852 852 853 852 853 853 854 854 855 855 856 856 855 855 855 855 854
802 803 804 804 804 804 805 805 806 807 807 808 809 809 810 811 812 813 814 815 816 817 817 818 819 820 821 822 822 823 824 825 826 827 829 830 831 833 834 836 837 838 839 839 839 839 840 840 840 840 841 842 844 845 846 846 848 849 850 849 850 850 850 850 851 851 851 852 852 853 853 852 852 852 853 853 854 855 855 855 855 855 855 855 854
802 803 803 804 804 805 805 806 807 807 808 808 809 810 810 811 812 813 814 815 816 817 817 818 818 819 821 821 822 823 823 824 825 826 827 828 830 832 833 835 836 837 838 839 839 839 839 839 839 840 841 842 842 844 845 846 847 848 849 849 849 850 850 850 851 851 851 852 852 853 853 853 852 852 852 852 853 855 855 855 855 855 855 855 854
802 803 804 804 804 805 805 806 807 807 808 808 809 810 810 811 812 813 814 815 816 816 817 818 818 819 820 821 821 822 823 823 824 825 826 826 828 831 832 833 835 836 837 839 839 839 839 839 839 839 840 841 842 843 844 845 846 847 848 848 849 850 851 850 850 851 851 851 852 852 853 852 852 852 852 852 852 854 854 855 855 855 855 855 855
803 803 804 804 804 805 805 806 807 807 808 808 809 810 810 811 812 813 814 814 815 816 816 818 818 819 820 821 821 822 823 823 823 824 824 825 828 829 830 831 833 835 837 838 839 839 838 838 838 839 839 840 841 842 843 844 845 846 847 847 848 849 850 850 850 850 851 851 851 852 852 852 852 852 852 852 852 852 853 854 854 855 855 855 855
803 803 804 804 804 805 806 807 807 807 807 808 809 810 810 811 812 813 813 814 815 815 816 817 818 819 820 821 821 822 822 822 822 823 824 825 827 829 830 831 832 834 836 837 838 838 838 838 838 838 838 839 841 842 842 843 844 845 846 847 847 848 849 850 850 849 850 851 851 851 851 851 852 852 852 852 852 852 852 853 854 854 855 855 855
803 803 804 804 804 805 806 806 807 807 807 808 809 810 810 811 812 813 814 814 815 815 816 817 818 819 819 821 821 821 821 821 821 822 823 825 827 829 830 831 832 833 835 836 837 837 837 837 837 837 838 838 840 841 841 842 843 843 844 845 846 847 848 849 850 849 849 850 850 850 851 851 851 851 852 852 852 852 852 853 853 854 854 855 855
803 803 804 804 805 805 806 806 807 807 807 808 809 810 810 811 812 813 814 814 815 816 816 817 818 818 819 820 821 820 820 821 821 821 822 823 826 828 829 829 830 831 833 835 836 836 836 837 836 837 837 837 839 840 840 840 841 842 842 843 844 845 846 847 848 848 848 849 850 850 850 850 850 850 851 851 852 852 852 853 853 853 854 854 854
802 803 804 805 805 806 807 807 807 808 808 809 810 810 811 811 812 813 814 815 815 816 817 817 818 819 820 820 820 819 819 820 821 821 821 823 825 826 827 827 828 829 831 832 834 835 835 835 836 836 836 837 838 839 839 839 840 840 840 841 843 844 845 846 847 847 847 847 848 849 849 849 850 850 850 850 851 851 852 852 853 853 853 854 854
802 803 804 805 806 807 807 807 808 808 809 810 810 811 812 812 813 813 814 815 815 816 817 818 818 819 820 821 821 819 818 818 819 820 821 823 825 826 826 826 827 829 830 831 832 834 834 834 834 835 835 836 837 838 838 838 838 839 839 840 841 842 843 845 845 846 847 846 846 847 848 848 849 849 849 850 850 851 851 852 852 852 852 853 853
801 803 804 805 806 807 808 808 808 809 810 811 811 812 812 813 813 814 815 815 816 817 817 818 818 819 820 821 821 820 818 817 818 820 822 823 825 826 825 826 827 828 829 829 831 833 833 834 834 834 834 835 835 836 837 837 837 837 838 839 839 840 841 843 844 845 845 845 845 845 845 846 847 848 848 849 849 849 850 850 851 851 852 852 852
800 802 804 805 806 807 808 808 809 810 810 811 812 812 813 813 814 815 815 816 816 817 817 818 818 819 820 821 821 821 820 818 818 820 822 824 826 826 825 825 827 828 829 829 830 832 832 832 833 833 833 834 834 835 836 836 837 837 837 838 838 839 839 840 842 843 844 844 844 844 843 844 845 845 846 846 847 847 848 849 849 850 850 851 852
799 801 803 805 806 807 808 809 809 810 811 811 812 813 814 814 815 815 816 816 817 817 818 818 818 819 820 820 821 821 821 820 819 819 820 822 824 826 825 825 826 827 828 828 828 829 831 831 832 833 833 833 833 834 835 835 836 836 836 837 837 837 838 838 839 841 842 842 843 843 843 842 842 843 843 844 844 845 845 846 847 848 848 849 850
797 800 803 805 806 807 808 809 810 810 811 811 812 813 814 815 815 816 816 816 817 818 818 818 819 819 819 820 821 821 822 821 821 820 820 820 822 824 825 825 825 825 826 827 826 827 828 830 831 832 832 831 832 833 834 835 835 835 835 836 836 836 836 837 837 838 839 840 841 842 842 842 841 841 841 841 842 843 843 844 844 845 846 847 848
796 797 800 803 805 806 808 809 809 810 811 812 812 813 814 814 815 816 816 816 817 818 818 819 819 820 820 820 821 822 822 822 822 821 821 821 821 822 824 825 825 825 825 826 826 826 826 828 829 830 831 830 830 831 832 833 834 834 834 834 833 833 835 835 836 836 836 837 838 839 840 840 840 840 839 839 840 840 841 842 842 843 844 845 845
793 795 797 801 804 805 807 808 809 810 811 812 812 813 814 814 815 816 816 817 817 818 818 819 819 820 820 820 821 822 822 822 822 821 822 822 822 822 823 824 824 824 824 825 825 826 826 827 828 829 829 829 829 829 830 832 833 834 833 833 833 832 833 834 834 834 834 834 836 836 837 838 838 838 839 838 838 838 839 839 840 841 842 843 843
791 793 795 798 801 804 806 807 808 809 811 812 812 812 813 814 815 816 816 817 817 818 818 818 819 820 820 821 821 822 822 822 821 821 821 822 822 822 823 823 824 824 824 824 824 825 825 826 827 827 827 828 828 828 829 831 833 833 833 834 834 833 833 832 832 832 832 832 833 834 834 835 835 836 837 837 836 836 836 837 838 839 840 840 841
790 792 794 796 798 801 804 806 808 809 810 811 811 812 813 814 815 816 816 817 818 818 818 819 820 820 820 821 821 822 822 821 821 821 821 821 821 822 822 823 823 823 824 824 824 824 825 826 826 826 826 827 828 828 829 830 831 832 833 833 833 834 834 832 830 829 829 830 830 831 832 832 833 834 834 834 834 834 834 835 835 836 837 838 839
788 791 793 794 796 798 801 804 806 808 809 810 810 811 812 814 815 816 817 817 818 818 819 819 820 820 820 821 821 821 821 821 821 822 821 821 821 821 822 822 823 823 824 824 824 824 824 825 825 825 825 826 826 827 828 828 829 830 831 831 832 833 832 830 829 828 827 828 828 828 829 829 830 831 831 831 832 832 832 832 833 834 835 835 836
786 788 791 792 794 797 799 802 805 806 808 809 810 811 812 813 814 815 816 816 817 818 818 819 819 820 820 820 821 821 821 821 821 822 822 821 822 821 822 822 823 823 824 824 824 824 824 824 824 824 824 825 825 826 826 827 827 827 828 828 829 830 828 828 829 828 826 825 825 826 826 827 828 828 829 829 830 830 830 830 831 832 833 833 834
784 786 789 791 793 796 798 801 803 805 807 808 809 810 811 812 813 814 815 815 816 817 818 818 819 819 820 820 820 821 821 821 821 822 822 822 822 822 822 822 822 823 823 824 824 824 824 824 825 824 824 824 824 824 824 825 826 826 825 826 826 827 827 827 828 829 828 826 823 824 824 824 826 826 826 826 827 827 827 828 828 829 830 831 831
782 785 788 790 792 795 797 799 801 803 805 806 808 809 810 811 812 813 814 815 815 816 817 818 818 819 819 820 820 820 821 821 821 822 822 822 822 822 822 822 822 822 822 822 823 823 823 823 823 823 823 823 823 823 823 824 825 824 824 824 824 825 826 826 826 827 829 827 824 823 822 822 823 823 823 824 824 824 825 825 826 827 827 828 829
780 783 786 788 791 794 796 798 800 801 803 805 806 808 809 810 811 812 813 814 815 815 816 817 818 818 819 819 819 820 820 821 821 821 822 822 822 822 822 822 822 822 822 822 822 822 822 822 822 822 822 822 823 823 822 822 823 823 823 823 823 823 824 824 824 825 826 827 825 822 820 820 820 820 820 820 821 821 822 823 823 824 825 825 826
779 781 784 787 790 793 795 797 798 800 801 803 805 807 808 809 810 811 812 813 814 815 815 816 817 817 818 818 819 819 820 820 821 821 821 821 822 822 822 822 822 822 822 821 821 821 821 821 821 821 821 821 821 821 821 821 821 821 821 822 821 821 821 821 822 823 823 824 824 822 820 819 818 817 817 818 818 819 819 820 820 821 821 822 824
778 780 782 785 788 791 793 796 797 798 800 802 804 805 807 808 809 810 811 811 812 813 814 815 816 817 817 818 818 818 819 819 820 820 821 821 821 822 822 822 822 822 822 821 821 821 821 820 820 819 819 820 820 820 820 820 820 819 819 820 820 819 819 819 819 820 821 821 821 820 819 818 817 816 815 815 816 816 817 817 817 818 818 819 821
Wind_Speed
20 20 18 16 14 12 11 10 10 10 10 10 11 10 10 10 11 13 13 15 15 14 13 12 12 12 12 13 14 14 14 15 16 17 18 17 16 16 16 15 15 16 16 15 15 15 15 15 15 16 16 16 15 15 17 18 18 17 18 18 19 18 19 22 24 24 22 20 19 18 19 19 18 19 20 20 19 18 18 19 20 20 19 19 19
22 21 19 17 15 13 12 11 11 10 10 10 10 10 10 11 12 13 14 15 15 14 14 13 11 12 12 13 14 13 13 14 15 16 17 16 15 14 15 14 15 15 15 15 15 16 16 16 16 16 17 17 16 17 18 19 20 19 19 19 19 19 19 21 22 22 20 19 18 18 19 18 18 19 20 19 18 18 18 18 19 19 19 18 18
24 22 20 18 15 13 13 12 12 11 10 11 11 11 11 11 12 13 14 15 15 14 14 13 12 12 12 13 13 12 13 14 14 15 15 15 14 13 13 14 14 15 15 14 15 15 15 15 15 16 16 16 16 17 19 20 20 20 21 21 21 22 22 22 23 22 19 18 19 20 20 19 18 17 18 17 18 18 18 17 17 18 18 17 18
24 22 20 19 15 14 13 13 12 12 11 12 12 12 12 12 13 13 14 15 15 14 14 13 12 12 12 13 12 12 12 12 13 14 14 14 14 12 12 13 13 14 15 15 14 14 14 14 14 15 16 16 15 17 19 19 20 22 24 25 25 26 26 25 26 24 21 19 20 21 20 19 18 16 17 17 18 17 17 17 17 18 17 17 18
23 21 20 19 16 14 13 14 13 12 12 12 13 12 13 13 15 14 14 15 15 15 15 14 12 12 12 12 11 11 12 11 12 13 13 13 12 12 12 13 13 14 15 15 14 13 13 13 13 15 17 16 15 16 18 19 21 25 27 28 27 27 27 25 26 25 23 22 21 20 20 19 19 17 17 18 18 17 17 17 17 17 17 18 18
22 21 20 18 16 15 13 13 12 12 11 12 13 13 13 14 16 15 15 16 16 16 15 14 13 12 12 12 11 11 11 11 11 12 12 12 11 11 12 13 13 13 14 14 13 12 12 12 12 15 17 15 15 15 18 21 23 27 27 27 26 26 25 23 23 23 21 21 19 19 19 18 18 17 16 16 17 16 16 16 15 15 16 17 17
22 21 19 18 16 14 13 13 12 11 11 12 12 13 13 14 16 16 16 17 16 16 16 15 13 12 12 12 11 10 10 10 11 12 12 11 11 11 12 13 13 12 13 13 13 12 12 12 12 14 16 15 15 16 19 22 24 25 25 25 24 23 22 20 20 19 18 17 17 17 18 18 17 17 15 15 15 16 15 15 15 14 15 16 16
22 21 19 18 16 14 13 13 12 12 11 11 12 12 13 13 16 16 16 17 17 17 17 15 13 13 12 12 11 10 10 10 11 12 12 11 11 11 12 13 14 12 12 12 12 12 11 11 11 14 15 15 16 18 20 23 23 23 22 22 21 20 19 17 15 16 17 16 17 17 18 18 17 16 15 14 15 15 15 15 14 13 14 16 16
20 20 19 18 16 14 13 13 13 12 12 11 11 11 12 13 14 15 15 17 18 18 18 16 14 13 12 12 11 11 10 10 11 12 11 11 11 11 12 13 13 12 11 11 12 12 11 11 11 13 15 14 16 18 20 22 22 21 20 19 18 17 16 14 13 13 15 17 17 16 17 17 15 15 14 14 15 14 13 13 13 13 14 14 15
19 19 19 18 16 14 13 13 13 12 11 10 10 10 10 12 13 14 15 17 17 18 18 16 14 13 13 12 12 11 10 10 11 13 12 11 11 11 12 12 12 11 11 10 11 11 10 11 11 13 14 14 16 16 18 21 21 20 18 16 15 13 13 13 14 15 18 19 16 15 16 15 14 15 14 13 13 12 12 11 11 11 13 13 14
18 19 20 18 16 14 13 13 13 13 11 10 9 9 9 10 12 13 15 16 17 18 18 16 14 13 13 12 11 10 11 11 12 13 13 12 11 10 11 11 11 10 10 10 10 10 10 10 10 12 13 13 14 15 16 18 20 19 17 15 12 11 12 14 17 21 24 21 17 15 15 15 15 14 13 12 10 10 11 11 10 12 12 13 13
17 19 20 19 16 14 13 13 13 13 12 10 9 9 9 9 10 13 14 15 17 17 17 15 14 13 12 12 11 11 11 12 12 13 13 13 11 9 10 10 9 9 9 9 9 10 10 9 10 11 12 13 13 14 15 17 19 18 17 13 10 12 16 18 19 22 23 18 15 13 13 14 14 12 12 12 10 10 11 11 12 12 12 11 12
17 19 20 19 17 15 13 12 13 13 13 12 11 11 10 9 10 12 13 15 17 16 16 14 13 13 12 12 12 11 12 12 12 12 12 12 11 10 10 9 8 8 8 8 8 9 9 9 9 10 12 13 13 14 14 16 18 17 16 12 10 12 15 18 19 20 19 15 13 11 11 13 13 12 12 11 11 11 11 11 12 12 11 10 10
16 19 21 19 17 15 13 11 11 11 12 12 12 12 12 11 11 13 14 15 16 15 15 13 12 12 11 11 12 12 12 12 12 11 12 12 11 10 10 10 9 8 7 7 7 8 8 8 8 10 12 13 13 13 14 15 17 17 15 13 11 10 11 14 16 18 18 14 13 12 13 14 14 13 12 10 10 11 11 10 11 11 10 8 9
17 20 20 19 17 15 13 11 11 10 11 12 12 12 12 12 12 13 14 15 15 14 14 13 12 11 10 11 11 12 12 12 12 11 11 11 11 10 10 10 9 8 7 6 6 7 8 7 8 10 12 13 13 13 13 15 16 15 14 14 12 11 10 10 13 18 17 15 14 14 14 13 13 12 11 11 11 11 10 9 10 10 9 8 9
16 19 19 18 16 14 13 10 10 10 11 12 12 13 13 12 12 12 13 14 13 14 14 13 12 12 11 11 11 12 12 11 11 11 11 10 10 9 9 10 9 8 6 5 5 6 7 7 7 9 12 13 13 13 13 14 15 14 13 14 12 11 12 11 14 21 17 15 16 15 14 13 13 11 11 11 11 11 9 9 9 9 8 9 9
13 16 18 16 15 13 12 10 9 9 10 11 11 12 12 12 12 12 12 12 13 13 14 13 12 12 12 12 12 11 11 10 10 10 10 9 8 8 8 9 9 8 7 5 5 6 7 7 7 8 11 13 12 12 13 13 14 14 13 13 12 13 15 14 16 22 18 17 16 14 14 13 12 11 11 10 11 11 10 9 9 9 8 9 9
12 13 15 14 13 12 11 9 8 9 9 10 10 10 11 12 11 11 12 12 12 13 13 13 13 13 12 12 11 10 9 9 10 9 8 8 7 7 8 8 9 8 7 6 6 6 7 7 8 9 11 12 12 11 12 12 13 13 12 11 13 15 16 15 16 18 16 17 15 14 14 13 12 12 13 11 12 11 10 9 9 9 9 9 8
14 12 12 13 13 11 10 9 8 8 9 9 9 10 10 11 10 9 10 11 12 14 13 13 13 13 12 11 10 10 9 8 8 8 8 7 6 6 7 8 8 8 7 6 6 6 7 7 8 10 12 12 11 10 10 11 12 13 12 10 13 15 14 14 15 16 14 14 13 14 13 13 12 13 14 12 11 11 10 10 10 10 8 8 8
14 14 12 11 12 12 10 8 8 7 7 9 9 10 10 10 10 9 9 9 11 14 14 13 12 12 10 10 10 9 9 8 7 7 7 7 6 6 8 8 8 8 7 6 6 6 7 8 9 10 11 11 10 9 8 8 9 12 12 9 11 15 13 11 13 15 13 12 12 13 12 11 11 13 14 10 9 10 10 11 11 10 7 7 8
14 13 13 12 11 11 11 9 7 6 7 9 10 10 10 10 10 9 9 8 8 9 11 11 10 10 9 9 9 9 9 8 8 7 7 7 6 6 8 8 8 7 7 6 6 7 8 9 10 10 10 10 9 8 7 6 7 10 13 9 9 13 13 10 11 12 12 11 11 11 11 10 10 12 12 9 9 11 10 10 11 9 7 7 8
15 14 13 12 12 12 12 11 8 7 8 9 9 10 11 10 9 9 9 8 8 7 8 8 8 8 8 9 9 8 8 7 8 8 7 7 6 7 9 9 8 7 7 7 6 8 9 10 10 10 10 9 9 8 7 7 6 10 13 11 10 10 12 10 11 10 11 11 11 10 9 9 9 11 12 10 10 12 10 10 11 9 7 7 7
13 13 12 12 12 12 13 13 10 8 8 8 8 10 12 11 9 9 8 8 8 8 7 6 7 7 8 9 9 8 7 8 8 8 8 7 7 8 9 9 8 7 7 6 7 8 9 10 11 10 10 10 9 9 8 6 6 9 13 13 11 10 10 10 10 11 11 11 10 10 9 9 9 10 12 11 11 11 10 9 9 8 7 7 7
11 11 11 12 12 12 11 11 10 9 8 8 9 11 13 12 11 10 9 9 8 8 7 6 6 6 8 9 9 10 9 9 9 9 10 9 9 10 10 10 8 7 7 6 7 8 8 9 10 11 11 11 9 8 8 6 5 8 13 13 12 11 9 8 10 11 11 10 9 8 8 9 10 11 12 11 11 11 9 8 8 7 7 7 6
11 9 8 9 11 12 11 9 8 8 7 8 10 11 14 14 13 11 11 10 10 10 8 8 9 9 9 10 10 11 11 11 10 10 11 11 12 13 12 11 9 8 7 7 7 8 9 10 11 11 11 11 10 8 7 6 4 7 13 12 10 10 6 6 8 9 10 9 8 7 7 9 12 13 13 11 11 11 9 8 7 6 6 6 6
12 9 7 6 7 8 9 9 8 7 6 8 10 11 13 15 14 13 12 11 11 12 10 10 12 10 10 12 11 11 11 12 12 11 12 12 13 14 13 12 10 8 8 8 7 8 10 11 12 12 12 11 11 9 8 7 4 8 11 8 6 6 5 7 8 8 10 9 7 6 5 7 12 14 14 12 11 11 9 7 6 4 3 4 5
14 11 7 7 8 7 7 9 10 7 7 9 9 9 12 13 14 13 12 11 10 11 10 11 11 8 9 11 11 11 11 11 12 12 12 13 12 13 14 13 11 9 9 10 9 10 11 12 12 12 13 12 12 11 10 12 7 7 6 4 3 3 6 9 9 10 10 8 7 5 3 6 10 12 13 13 12 12 10 8 7 4 1 3 5
15 11 8 8 11 10 10 10 10 9 9 9 8 8 9 9 11 12 12 10 9 9 10 11 8 5 6 8 9 10 10 10 11 11 11 12 14 14 15 13 12 11 11 12 11 11 12 11 11 11 11 11 12 11 12 14 10 5 2 2 1 2 8 10 9 11 10 7 7 6 4 6 9 11 12 14 13 12 10 9 8 4 4 4 5
15 10 7 7 8 9 10 10 9 10 10 9 10 11 11 10 7 9 10 9 8 7 8 11 7 4 5 5 6 8 9 9 9 9 9 11 15 16 15 13 13 14 14 14 12 12 13 12 11 10 10 10 9 10 12 14 11 6 4 4 3 3 8 9 9 12 10 7 7 7 6 7 8 9 10 13 14 13 12 10 9 6 5 5 5
14 11 9 8 8 7 9 9 7 9 12 12 11 12 12 13 11 9 7 6 7 7 7 9 7 4 4 3 3 5 6 7 7 7 8 10 13 15 17 17 16 16 16 17 16 14 14 13 13 12 12 11 9 9 13 13 11 9 8 8 7 5 8 7 7 11 10 9 9 9 8 8 7 7 9 11 13 14 14 12 10 7 6 6 5
14 12 11 11 10 10 9 9 8 10 14 14 13 12 11 11 13 12 11 8 5 5 7 9 8 5 5 5 4 4 5 6 7 7 9 9 10 10 14 20 20 18 15 16 17 16 16 16 16 16 16 15 12 12 14 11 12 11 10 10 8 7 8 8 8 10 11 11 10 10 10 9 7 7 8 10 12 14 14 14 12 10 8 7 7
13 13 12 12 12 12 11 9 10 12 13 14 14 13 11 12 13 12 11 10 8 6 5 7 8 4 3 4 3 4 4 6 8 9 10 9 10 10 13 19 23 22 16 15 15 14 17 18 17 18 19 17 13 14 15 11 12 9 9 11 9 9 8 9 10 9 10 12 12 11 11 10 8 8 8 10 13 14 15 15 14 13 11 10 9
15 14 13 13 12 11 11 9 10 13 13 13 13 13 12 13 13 10 8 8 8 9 8 4 4 4 3 2 1 2 4 5 7 10 11 9 10 11 11 14 19 23 19 15 14 13 15 18 17 16 16 13 11 14 18 12 12 9 9 11 9 11 10 9 11 10 9 12 14 13 12 11 10 9 8 9 12 15 15 15 16 15 13 12 9
16 14 13 12 11 10 11 10 9 12 13 13 12 12 13 12 10 9 8 7 7 8 9 8 6 5 5 2 1 5 6 6 5 7 9 8 9 10 11 12 15 20 21 18 16 15 14 16 18 16 15 13 11 14 18 13 11 10 11 13 10 11 14 13 12 12 11 11 13 14 12 11 11 10 9 9 10 13 15 15 17 17 15 13 10
17 15 13 13 13 12 12 11 11 11 13 14 12 12 12 10 9 11 10 9 8 8 7 5 6 8 10 8 5 3 6 6 5 4 6 7 8 10 12 14 14 17 19 16 15 17 16 16 17 14 13 15 13 11 16 14 13 10 9 13 12 11 15 17 14 13 13 12 12 14 13 12 12 11 9 9 9 11 14 14 16 18 17 15 13
18 16 15 15 14 13 13 13 13 13 13 14 13 12 11 10 11 12 11 10 10 8 7 6 6 9 11 10 7 4 3 5 4 3 4 5 6 8 11 13 13 14 16 15 15 17 17 18 17 12 9 13 15 11 13 15 14 10 8 11 12 10 12 17 16 14 13 13 13 14 13 12 12 12 11 10 9 10 12 13 15 17 17 16 16
19 18 17 16 16 15 14 15 15 15 15 15 14 12 13 13 13 12 10 10 10 8 8 10 9 9 11 10 8 5 2 3 4 3 3 3 4 7 11 11 10 10 12 14 15 15 16 17 16 13 10 11 14 11 10 13 14 12 12 13 13 11 10 12 14 15 16 16 15 16 15 13 12 12 12 11 9 10 11 12 14 16 17 17 17
21 20 19 18 17 16 15 15 14 14 14 14 15 12 12 13 11 10 10 10 10 9 9 10 8 7 7 7 7 7 4 1 4 5 4 4 4 7 10 9 7 9 13 13 12 13 15 17 15 14 13 11 12 10 8 11 12 10 11 14 16 16 13 11 12 14 17 19 17 18 19 16 14 14 13 12 11 11 11 12 13 15 17 18 18
23 22 21 19 18 17 15 13 13 14 14 13 12 11 11 12 11 10 10 10 9 8 7 8 6 5 4 5 6 6 4 3 1 4 4 3 3 5 9 9 8 9 12 13 11 11 13 15 16 14 14 12 11 8 6 9 10 8 8 10 14 19 16 13 15 14 15 19 18 18 20 20 17 16 16 16 15 14 13 13 14 16 17 18 18
26 25 23 20 19 18 16 14 13 14 15 13 11 11 12 12 11 11 11 9 9 8 5 5 5 5 3 3 5 4 3 3 2 1 3 3 2 1 4 8 10 9 10 11 11 11 12 13 15 15 16 16 13 10 9 9 9 10 9 7 11 18 19 15 17 18 16 17 18 18 19 20 20 21 21 20 19 17 16 14 15 16 17 18 19
29 28 26 23 21 19 18 16 14 13 14 12 11 11 12 12 10 11 11 9 10 8 5 4 4 3 2 3 5 4 3 3 3 1 1 1 2 2 0 3 6 8 9 10 11 12 13 12 12 15 18 19 16 14 13 11 9 8 8 7 7 15 21 17 16 19 20 19 18 19 20 20 23 23 23 24 22 20 19 17 16 16 17 18 19
32 32 29 26 23 21 20 17 15 14 11 10 12 13 13 12 11 11 11 10 10 7 5 5 5 4 4 4 4 3 3 4 3 1 2 1 1 2 2 1 1 2 4 6 8 11 14 14 13 14 16 17 17 16 15 12 8 4 3 4 4 8 17 20 18 18 21 22 21 21 20 20 23 23 22 25 26 24 22 20 18 17 18 18 20
34 33 31 29 26 24 21 17 16 14 10 12 15 15 14 13 12 10 9 9 9 7 7 7 6 6 6 5 3 3 2 3 3 1 1 2 2 2 2 1 1 2 3 3 4 6 9 12 14 15 15 15 16 17 16 14 10 5 1 1 2 2 6 14 19 20 21 22 23 23 23 21 23 23 21 24 28 28 25 23 21 19 19 19 20
33 33 31 30 29 27 23 20 18 15 13 15 16 15 13 12 11 10 9 8 9 9 9 8 6 6 7 5 3 4 4 4 5 4 1 3 3 1 1 2 1 3 4 4 5 6 7 7 9 11 13 15 16 15 15 16 14 10 4 1 2 2 3 6 13 21 23 23 23 25 27 26 25 25 24 23 27 30 28 24 23 21 20 19 20
32 33 33 32 31 28 25 22 20 17 16 16 15 14 14 12 11 11 10 9 10 11 10 8 6 7 7 5 3 2 2 1 4 6 4 2 3 2 1 1 2 1 3 4 5 7 8 9 8 9 10 13 16 16 15 15 16 17 12 5 2 2 3 3 5 14 19 22 26 26 27 28 27 26 27 25 24 27 28 26 24 23 21 21 22
33 35 34 32 32 29 26 25 23 20 19 17 16 16 15 14 13 14 14 12 12 12 10 8 8 8 7 5 3 1 2 3 1 5 7 4 2 3 4 3 3 3 3 4 6 6 7 9 10 12 12 13 14 16 18 18 17 19 20 17 12 6 3 1 1 4 9 15 23 27 28 29 29 27 28 28 27 26 27 27 25 24 23 23 24
33 35 34 31 30 28 27 26 24 23 21 19 18 17 15 16 15 14 15 14 14 13 11 10 9 7 7 7 6 3 2 3 3 1 2 5 5 3 3 4 5 5 5 5 6 6 7 9 9 11 13 15 15 16 18 19 16 17 22 24 24 19 12 7 3 1 3 7 14 22 26 28 28 29 29 29 29 30 29 28 26 25 25 25 25
34 34 33 32 30 28 26 27 25 24 23 22 20 18 16 17 15 14 14 14 15 13 11 10 9 7 6 7 6 5 4 3 1 2 2 0 3 4 4 6 7 7 6 6 7 7 8 10 10 10 11 13 16 17 18 18 15 17 20 22 24 24 21 16 13 8 3 3 8 13 21 26 28 29 31 31 31 32 31 29 28 28 28 28 27
35 35 34 33 31 29 27 27 27 26 25 24 22 18 17 17 16 15 13 12 14 13 9 9 9 8 7 7 6 6 6 6 5 3 1 1 0 1 3 5 7 8 9 9 9 9 10 11 11 11 11 11 12 14 17 18 17 19 20 20 22 23 21 20 20 16 10 6 5 5 12 18 22 26 31 32 32 33 32 31 30 31 32 31 29
35 36 35 33 32 31 29 29 29 27 26 25 23 20 19 18 18 16 14 13 13 12 9 10 10 9 8 7 8 7 6 5 5 5 4 3 2 1 1 2 3 5 8 10 12 12 12 12 13 13 12 11 12 13 15 17 18 20 21 21 20 19 17 16 17 18 14 11 7 6 10 11 11 18 27 32 34 33 31 30 30 32 35 33 32
33 35 34 33 32 32 31 31 30 28 27 25 23 22 21 21 20 18 17 17 16 13 13 14 13 11 9 8 7 7 6 6 5 5 5 5 5 3 2 3 4 3 5 7 9 11 12 14 15 16 15 14 13 13 15 17 17 18 20 21 22 21 19 16 16 17 13 9 8 7 12 15 12 13 18 23 31 34 32 30 29 31 34 34 33
Wind_Direction
151 147 141 143 140 142 143 135 127 126 130 139 145 147 146 137 135 134 135 138 141 145 146 141 131 122 119 121 117 108 108 110 110 111 113 114 113 112 111 110 109 106 102 100 99 100 100 98 95 96 96 97 97 100 106 111 114 116 115 113 110 109 108 107 106 104 97 92 91 88 86 85 84 88 90 90 88 86 90 89 85 81 77 75 73
152 148 143 143 143 145 144 139 134 128 130 137 142 146 145 140 136 135 139 142 145 149 149 144 135 126 124 125 119 110 111 114 114 114 116 115 113 113 113 111 109 106 102 97 95 96 97 97 94 94 95 96 95 98 108 115 117 117 114 111 109 109 107 107 106 104 101 97 92 88 87 87 87 89 92 93 88 85 88 85 82 81 78 75 75
151 149 145 145 146 146 144 141 138 134 134 136 141 145 144 140 137 140 142 145 149 152 152 147 137 129 128 128 122 115 115 120 119 117 116 116 115 115 113 110 109 106 100 92 90 94 96 97 96 97 97 97 95 99 110 118 116 111 107 106 107 105 102 101 98 98 105 108 100 93 89 89 91 91 91 92 87 85 85 83 81 81 79 76 75
151 149 147 146 146 146 145 143 142 140 138 139 142 144 146 141 138 143 145 149 153 155 156 151 141 132 131 132 126 120 120 122 122 119 116 118 119 116 114 112 111 108 102 96 94 96 98 98 100 104 102 100 99 101 110 116 112 107 107 108 108 104 102 98 93 96 102 107 107 98 92 91 91 90 90 89 87 88 88 85 82 81 79 77 75
149 149 148 147 147 149 147 145 144 141 138 138 140 145 147 143 141 145 150 154 157 159 159 154 146 137 135 135 129 124 124 123 125 123 120 121 120 115 116 117 116 114 109 104 100 99 100 101 105 110 107 104 103 103 108 113 110 110 111 111 111 107 104 98 93 96 96 99 101 95 94 92 89 88 89 89 88 88 87 85 83 82 81 78 76
149 150 150 149 150 151 149 145 141 137 135 135 137 145 150 148 145 147 154 157 161 163 162 158 150 143 140 138 135 130 126 125 128 128 127 124 120 121 123 123 120 117 114 109 105 102 104 105 108 113 111 107 105 103 107 111 114 114 113 113 113 111 108 101 98 98 94 97 97 92 95 93 89 88 88 89 89 88 86 85 85 83 81 79 78
150 152 152 151 152 153 148 141 137 133 132 135 137 145 153 154 151 152 158 159 163 165 164 160 153 148 144 140 137 135 131 128 131 131 131 127 120 124 128 128 124 119 116 112 109 107 107 109 112 116 113 108 104 104 111 115 118 116 114 113 113 111 107 101 100 100 97 100 99 94 96 95 91 89 88 90 89 88 85 84 84 84 83 81 79
151 153 154 153 155 153 147 140 135 134 132 134 137 145 154 157 157 160 162 163 165 167 165 161 156 153 148 143 138 138 136 133 135 134 133 130 124 123 128 130 126 123 121 117 112 111 111 112 117 120 115 109 105 107 116 121 120 117 115 112 112 110 107 103 100 102 102 108 104 95 97 98 95 93 92 92 91 90 92 92 87 85 85 83 81
151 154 156 158 159 153 146 140 135 133 131 132 135 142 154 159 161 165 168 167 167 167 165 161 159 155 151 145 139 138 138 140 139 136 134 131 128 126 128 130 128 128 127 122 117 116 116 116 121 124 118 112 109 110 119 126 122 116 114 114 114 115 113 106 100 103 111 120 111 98 100 99 94 95 96 96 96 94 98 99 90 86 86 85 83
153 157 161 163 160 153 149 145 138 132 128 127 131 137 152 160 163 169 171 169 167 166 164 160 159 157 153 145 140 139 140 146 142 137 134 132 134 132 132 132 131 131 128 125 124 121 120 124 129 127 120 115 114 112 120 129 126 119 118 119 117 116 112 98 97 114 126 128 115 100 102 102 96 96 99 100 100 97 95 96 92 89 88 87 85
155 162 166 166 158 152 153 149 140 131 127 123 123 128 143 157 163 171 173 171 167 164 162 159 159 159 153 146 142 141 144 148 144 139 135 136 140 137 137 136 134 134 131 129 128 125 126 133 135 130 121 118 117 114 118 129 132 129 126 122 117 112 104 99 105 123 135 132 119 107 104 106 105 102 102 104 103 102 100 98 92 89 89 88 85
159 167 167 165 157 156 158 151 140 131 127 124 118 117 128 149 159 165 171 171 166 160 160 159 160 161 154 148 146 144 147 147 143 141 139 141 144 144 144 142 140 140 138 133 129 127 131 138 140 133 125 122 120 116 119 130 137 136 132 127 121 110 103 105 109 127 138 135 126 113 107 110 111 109 106 107 106 103 103 99 94 93 93 92 88
161 169 168 165 158 160 162 153 144 138 132 125 117 111 116 136 151 160 167 166 161 157 156 159 160 160 154 148 147 147 150 147 143 143 143 142 146 152 150 150 150 148 146 136 128 129 134 140 143 136 129 128 123 119 121 130 137 138 137 133 122 105 104 108 110 132 143 137 132 123 115 113 112 114 111 111 111 106 104 104 104 102 98 97 93
159 167 167 165 161 163 164 156 147 141 131 121 117 113 114 126 141 153 160 159 157 156 155 159 162 159 154 149 147 149 152 148 142 145 148 144 147 156 155 156 158 156 152 138 127 129 135 141 145 140 134 131 127 123 123 131 136 137 137 128 112 89 99 113 114 135 145 137 133 124 117 116 117 118 115 114 115 112 108 112 116 108 103 102 94
156 164 166 165 163 165 164 156 146 137 125 119 118 117 120 128 138 148 153 157 159 161 161 162 163 160 157 152 149 149 151 149 145 147 148 144 146 157 160 158 162 165 156 140 131 130 133 140 145 142 138 135 132 127 127 134 136 137 133 118 97 77 88 103 123 143 145 137 131 121 115 115 123 124 123 122 120 119 116 118 117 110 105 99 94
154 161 166 166 165 166 164 157 146 137 126 123 123 122 123 125 136 147 151 158 162 165 167 166 165 162 161 157 152 151 152 150 148 148 149 147 148 158 166 162 166 171 164 151 144 142 139 144 151 148 142 139 137 131 132 139 141 141 129 111 89 80 79 77 129 151 149 137 131 124 117 118 128 129 129 130 126 123 120 116 112 111 107 100 97
150 161 165 165 166 168 165 157 144 138 132 129 130 128 124 124 134 144 153 160 162 167 169 167 166 165 165 162 156 154 154 153 153 152 152 152 151 159 172 170 172 174 171 167 159 153 147 152 160 157 148 143 141 135 138 143 148 147 128 112 91 87 80 75 132 150 144 138 132 124 120 124 132 130 128 130 128 126 125 121 116 114 109 103 99
128 156 165 165 166 167 167 157 146 142 140 137 137 136 129 130 136 142 155 162 163 168 170 168 168 167 167 165 161 159 157 157 158 158 157 157 155 165 179 179 178 177 175 168 160 153 148 157 159 159 152 145 145 139 141 146 155 153 135 119 98 97 89 86 132 145 138 136 128 122 121 124 130 130 129 131 131 131 131 126 121 115 107 104 101
108 124 145 162 172 174 169 155 152 149 148 151 147 147 142 138 138 143 154 161 169 170 168 168 167 166 168 166 165 164 160 161 163 162 162 163 159 174 190 185 179 179 177 161 152 150 148 157 157 157 152 147 148 142 141 141 154 157 145 129 103 106 98 96 133 141 136 136 125 121 122 126 131 133 135 140 139 134 133 129 125 119 113 110 104
109 107 109 133 162 173 167 151 154 154 153 161 159 157 154 149 141 144 153 159 171 169 163 164 165 166 167 168 169 167 162 161 168 168 170 171 168 188 198 190 184 182 179 165 152 153 152 157 157 155 152 149 149 145 144 138 147 156 154 141 108 111 96 94 137 140 132 133 127 125 124 128 131 136 142 148 142 135 137 133 129 126 123 115 106
120 120 110 113 131 152 157 147 142 147 161 171 171 168 162 158 150 147 152 152 161 161 157 157 163 167 167 171 171 169 168 167 174 179 181 179 174 196 204 196 191 186 185 178 162 158 155 156 159 157 154 152 152 152 154 151 143 151 162 157 125 119 93 94 145 144 136 134 130 128 125 131 134 141 148 151 140 138 142 135 134 132 126 118 111
117 121 118 118 125 134 139 136 128 127 160 176 176 179 174 165 156 150 150 147 148 147 151 158 166 171 172 176 175 175 176 174 181 186 188 190 187 198 207 202 193 190 189 185 168 159 157 158 162 160 160 159 160 160 161 169 153 149 167 166 151 137 95 105 154 153 146 139 131 130 128 138 144 146 148 149 143 143 147 141 139 136 131 125 121
108 106 103 106 119 127 125 124 127 127 149 167 164 175 176 168 155 147 146 142 145 142 141 157 171 176 179 179 178 181 182 180 184 188 191 194 194 200 207 200 193 193 189 184 170 161 159 160 167 165 165 170 170 169 164 163 152 154 167 162 160 154 101 112 159 158 151 141 131 133 137 145 152 152 148 147 144 149 159 155 149 146 143 135 126
111 107 101 98 105 119 123 111 118 129 139 154 150 161 168 165 155 148 147 142 142 137 133 150 167 179 182 181 180 181 184 190 192 192 195 192 189 196 203 197 190 194 190 181 168 166 166 164 174 174 173 182 183 183 180 162 140 155 163 153 151 148 112 123 159 154 151 146 137 136 141 152 156 154 151 150 148 155 166 162 155 154 151 142 135
125 117 109 104 101 107 115 102 109 126 132 151 152 159 168 169 160 152 151 148 150 145 147 168 177 184 182 182 189 193 195 201 205 201 198 194 189 189 193 196 190 193 194 182 169 171 176 172 178 184 184 191 194 197 200 188 147 149 160 151 148 149 133 154 170 166 161 150 139 136 138 156 160 153 151 154 154 158 168 166 158 154 152 156 156
127 120 107 105 117 111 107 104 109 111 121 152 157 159 167 172 166 162 157 150 158 160 167 183 182 181 177 185 198 205 207 211 216 210 203 200 194 185 185 196 196 195 199 189 173 172 179 179 181 185 189 193 198 203 211 217 171 149 165 158 154 156 163 185 186 182 171 153 136 135 139 162 169 162 158 159 159 162 172 185 183 171 160 175 181
124 126 114 103 125 126 121 116 100 95 130 151 156 160 164 172 171 172 168 157 163 165 177 192 191 182 172 186 200 210 217 222 225 219 212 208 202 189 184 192 199 201 203 197 180 176 183 184 186 188 192 197 202 205 218 226 198 144 159 165 161 157 176 194 194 179 170 159 145 143 146 164 175 173 167 165 165 168 175 187 188 187 203 199 194
127 129 118 106 110 109 122 124 93 93 132 135 121 133 143 156 172 177 174 170 171 168 182 196 203 194 177 190 202 216 228 236 237 226 218 216 211 199 186 187 202 210 210 207 192 186 190 192 198 198 201 209 210 219 229 221 199 154 143 162 178 196 192 199 196 184 176 168 160 160 162 164 175 176 172 169 170 174 179 189 193 215 244 213 191
128 128 119 108 105 103 118 127 107 103 125 122 102 103 104 104 132 169 177 179 175 164 182 200 205 193 186 205 214 220 237 248 245 229 222 224 218 206 192 187 200 211 214 210 203 202 205 207 213 214 221 224 227 234 219 200 184 176 208 219 231 209 195 200 198 191 185 182 182 178 170 167 174 179 180 178 177 178 182 195 203 214 218 195 180
128 128 120 111 112 119 125 131 124 113 119 118 105 101 95 87 95 119 143 166 174 169 179 196 193 165 154 159 187 205 229 241 236 224 220 222 217 209 200 194 199 211 215 210 210 221 224 225 228 235 241 237 250 230 196 188 188 193 202 211 224 202 194 213 214 201 198 200 197 185 177 175 177 180 187 187 185 183 184 195 202 197 193 190 184
132 128 125 123 127 132 137 133 114 115 121 114 105 102 94 89 95 94 94 100 118 164 187 199 185 147 140 137 135 169 204 220 218 219 217 215 218 218 206 200 203 211 217 212 214 227 232 233 234 244 247 244 252 215 187 191 198 205 207 202 211 205 206 223 223 211 209 210 203 191 186 185 188 189 191 195 196 192 189 193 198 196 196 200 198
137 132 129 133 133 131 139 135 106 110 121 114 105 101 99 102 100 86 82 85 76 90 144 199 199 170 145 152 135 148 180 202 211 215 212 214 217 222 218 209 209 216 222 214 211 220 226 230 234 243 243 245 252 207 187 193 195 202 205 200 208 209 214 221 222 225 220 215 208 200 194 192 195 198 200 202 203 198 193 195 198 198 197 200 202
141 139 136 132 128 129 138 137 113 107 110 114 107 98 107 111 100 90 85 90 86 80 80 101 185 189 169 194 222 205 203 196 208 210 205 212 211 209 217 217 217 224 230 221 210 208 215 225 232 241 241 250 260 208 193 195 199 206 203 203 212 213 214 210 217 231 228 217 211 208 203 201 199 201 205 204 204 203 203 202 200 201 198 202 208
147 149 145 133 122 125 131 131 127 113 107 116 112 97 106 106 97 107 104 104 112 91 74 78 103 124 117 108 211 225 223 211 214 210 202 207 205 200 205 216 222 224 229 227 218 210 212 222 227 239 246 253 260 212 197 196 198 211 216 212 218 224 216 202 208 224 233 226 216 216 213 208 206 205 204 201 204 208 213 213 206 205 202 204 213
155 156 151 140 128 126 126 126 131 124 119 123 114 100 103 101 103 119 111 106 118 101 81 81 98 105 101 99 111 182 222 221 214 219 215 201 195 205 206 212 222 222 225 227 219 216 219 217 219 238 248 241 246 212 197 197 194 203 213 209 220 238 218 204 209 218 230 236 222 218 218 217 216 211 207 202 203 206 215 220 213 212 209 206 208
160 157 152 146 136 135 131 126 128 127 130 129 114 100 96 99 110 117 109 106 113 104 93 97 112 120 114 109 103 113 217 238 227 224 227 194 186 210 211 212 220 222 225 226 220 222 225 220 218 233 237 230 235 216 198 200 197 206 212 206 221 239 215 209 219 218 222 231 225 218 216 221 223 218 216 209 206 206 211 219 219 220 218 213 207
162 159 154 152 146 144 136 126 124 120 122 125 118 106 94 95 105 111 106 108 112 101 100 107 110 118 118 114 106 109 159 247 254 233 197 184 189 208 209 210 216 217 220 223 226 228 227 224 221 223 222 230 234 227 225 218 208 216 220 212 218 227 214 209 223 227 223 224 226 226 221 220 221 219 217 212 212 211 211 216 220 225 225 221 215
163 161 156 157 153 148 141 132 128 124 122 123 124 125 112 100 103 119 108 95 104 99 101 113 111 115 111 101 101 113 132 139 270 258 232 218 222 225 219 212 210 210 211 212 223 228 222 222 224 221 219 235 242 239 244 226 213 222 229 227 223 220 220 217 221 231 231 225 226 230 229 224 220 216 216 217 218 215 214 218 221 224 225 227 227
162 161 159 161 158 152 152 146 140 137 139 138 136 141 135 112 104 125 119 93 103 104 103 116 118 129 116 82 94 118 141 134 223 281 292 262 227 229 229 224 214 206 207 207 216 227 224 223 228 226 220 231 248 251 234 212 213 232 243 241 227 221 227 227 219 225 235 234 231 229 226 227 228 226 228 229 224 218 216 221 223 223 225 228 232
162 161 162 165 163 161 164 161 150 145 149 152 153 147 135 123 112 118 119 106 117 120 115 124 125 146 152 96 96 109 127 126 146 230 318 332 3 35 215 225 225 213 204 200 206 222 227 226 229 227 225 226 232 244 244 230 233 248 258 256 234 230 232 229 220 218 224 234 237 232 228 232 233 233 235 233 227 222 220 224 227 226 227 229 232
164 163 165 170 172 171 173 172 161 155 158 159 166 158 135 129 128 120 118 117 129 132 123 136 135 144 183 144 117 106 93 91 102 132 305 331 352 7 89 222 232 230 221 209 208 221 226 224 223 223 227 230 230 238 247 248 255 267 276 280 254 233 227 226 223 219 219 227 235 238 239 238 232 231 235 232 230 228 225 227 230 229 229 230 230
166 167 168 172 176 179 180 179 168 164 171 169 167 163 146 142 139 128 127 121 128 134 118 136 132 92 104 137 143 145 140 129 117 30 336 330 297 268 272 298 283 264 256 237 227 231 234 233 231 226 225 232 237 239 242 248 257 259 287 315 299 238 225 224 224 224 224 225 229 235 243 240 229 230 235 232 231 230 229 230 231 232 232 233 232
169 170 172 173 178 184 186 184 177 173 180 178 168 158 150 153 146 136 140 130 130 135 120 130 130 103 117 138 167 204 228 202 180 171 3 351 319 260 249 274 354 357 346 312 278 261 251 243 243 240 235 238 243 243 244 248 246 224 155 334 282 262 240 232 227 229 230 228 229 232 237 240 233 234 238 232 228 228 229 231 232 232 232 236 237
170 172 175 176 180 184 187 188 185 181 183 183 178 168 160 161 153 144 144 132 131 137 128 128 126 129 155 179 220 244 268 251 220 205 171 13 352 323 121 131 96 353 343 328 316 308 298 275 258 252 247 245 246 248 248 249 243 230 204 161 205 215 255 245 233 233 233 230 231 231 233 238 239 239 241 236 229 226 227 230 231 233 233 237 241
171 175 178 179 181 184 187 188 188 185 183 184 186 181 170 165 158 151 149 142 145 152 143 136 135 148 169 190 233 270 329 289 217 207 217 338 360 329 344 150 180 297 323 319 315 316 314 304 292 282 269 257 252 250 249 247 242 234 225 208 187 189 217 244 249 242 238 233 232 232 232 235 239 238 237 238 234 226 225 228 229 233 236 238 240
173 178 180 181 181 183 187 187 188 188 184 185 189 185 174 167 161 156 160 161 160 164 161 152 156 166 171 174 193 209 62 47 69 197 218 244 272 293 309 297 265 262 290 311 309 309 314 312 302 289 282 276 266 255 249 248 243 237 235 235 238 235 207 154 78 263 262 250 238 234 232 234 237 237 233 234 236 231 226 225 228 233 237 238 238
177 181 181 182 180 182 187 188 189 190 188 187 188 186 178 171 168 166 170 172 166 165 168 166 164 164 158 159 168 174 124 60 35 60 218 236 240 253 280 282 276 270 277 299 305 302 309 316 311 296 285 278 268 258 255 256 249 244 243 240 242 245 246 240 223 254 298 281 255 242 236 234 235 236 232 231 234 234 228 225 229 234 235 235 237
180 181 182 183 183 184 189 191 190 190 190 190 191 189 183 175 177 181 181 182 178 171 167 165 167 166 156 151 153 158 161 178 245 357 29 244 227 234 248 259 263 267 271 283 292 292 297 304 312 315 304 284 268 260 261 262 254 250 250 243 240 243 246 246 242 242 249 289 281 261 244 237 235 235 233 232 235 234 229 226 229 234 232 231 234
180 182 183 184 185 187 191 192 191 192 192 195 196 192 186 182 185 188 184 183 181 177 172 168 173 180 173 160 162 172 171 178 199 212 244 10 44 237 256 263 264 265 266 272 277 277 286 299 308 316 317 306 289 276 269 266 259 257 255 250 246 244 245 247 247 245 244 249 271 279 252 240 236 236 234 233 235 233 229 229 232 234 232 229 232
180 183 183 183 184 187 192 191 191 194 194 197 199 193 190 191 191 190 187 184 180 179 183 183 185 188 184 177 175 177 179 183 189 194 209 227 236 266 326 322 288 272 270 276 278 275 278 290 298 301 305 307 304 300 289 278 271 265 259 253 251 248 246 247 247 243 240 239 243 264 269 257 243 242 238 234 233 231 229 231 233 232 230 227 228
177 181 181 182 183 187 192 191 192 196 196 198 198 193 194 198 196 193 192 190 186 187 189 189 193 193 193 195 182 173 187 199 198 200 206 217 231 249 295 320 321 312 294 288 285 283 281 283 286 287 289 293 296 303 304 294 283 274 265 255 249 248 246 243 243 241 235 231 236 251 262 262 259 257 252 241 235 231 229 231 231 233 230 225 225